[[{"header":{"parameterUnit":"m.s-1","parameterCategory":2,"la1":30.2992,"la2":30.254,"lo1":-89.0895,"lo2":-89.0443,"dy":0.0025,"dx":0.0025,"nx":19,"ny":19,"refTime":"2026-04-17T09:00:00:Z","depth":"0","parameterNumber":2,"parameterNumberName":"U-component_of_CURRENTS"},"data":[0,0,0,0.2455,0.2456,0.2474,0.2474,0.2643,0.2645,0,0,0,0,0,0,0,0,0,0,0,0.2444,0.2444,0.2455,0.2456,0.2474,0.2474,0.2643,0.2645,0,0,0,0,0,0,0,0,0,0,0,0.2444,0.2444,0.2445,0.2456,0.2474,0.2474,0.2642,0.2592,0,0,0,0,0,0,0,0,0,0,0.2555,0.2519,0.2444,0.2445,0.2456,0.2474,0.2474,0.2588,0.2595,0.2677,0,0.2676,0,0.2673,0.266,0.2661,0,0,0,0.2453,0.2512,0.2527,0.2445,0.2456,0.2474,0.2465,0.259,0.2599,0.2688,0.2678,0.2684,0.2676,0.2662,0.2663,0.2861,0.2861,0,0,0.2452,0.2445,0.252,0.2532,0.246,0.2464,0.2466,0.2594,0.2601,0.2679,0.2687,0.2679,0.2663,0.2665,0.286,0.2861,0,0,0,0.2451,0.2444,0.2452,0.2526,0.2522,0.2465,0.2466,0.2595,0.26,0.2689,0.2681,0.2664,0.2667,0.286,0.2861,0.2819,0,0,0,0.245,0.2444,0.2452,0.2447,0.2518,0.2538,0.2465,0.259,0.2604,0.268,0.2664,0.2669,0.2859,0.286,0.2819,0.2828,0,0,0,0.2444,0.2444,0.2446,0.2447,0.2458,0.2535,0.2545,0.2592,0.2601,0.2661,0.267,0.2859,0.286,0.2819,0.2828,0.2843,0,0,0,0.2436,0.2431,0.2446,0.245,0.2457,0.2496,0.2544,0.2586,0.2633,0.2666,0.2859,0.2861,0.2819,0.2828,0.2842,0.275,0.2745,0,0,0.2424,0.243,0.2435,0.2448,0.2468,0.2493,0.254,0.2622,0.2685,0.2826,0.283,0.2819,0.2828,0.2843,0.2819,0.2811,0,0,0,0.2428,0.2423,0.2436,0.245,0.2489,0.2528,0.2592,0.2649,0.2754,0.2719,0.2855,0.2864,0.2873,0.2818,0.2812,0.2645,0.2866,0.2866,0.2866,0.2385,0.2409,0.2413,0.2446,0.2484,0.2566,0.2624,0.2721,0.277,0.2816,0.2855,0.2878,0.2818,0.2813,0.2641,0.287,0.287,0.287,0.287,0.2351,0.2346,0.2389,0.2398,0.2466,0.252,0.2669,0.272,0.2856,0.2873,0.2882,0.2809,0.2804,0.2623,0.2868,0.2868,0.2869,0.2869,0.2869,0.2307,0.2306,0.2316,0.2342,0.2397,0.2492,0.259,0.2712,0.2827,0.2868,0.2818,0.2818,0.2638,0.286,0.286,0.286,0.286,0.286,0.286,0.2254,0.2264,0.2254,0.2292,0.231,0.2384,0.2555,0.2638,0.2735,0.2801,0.28,0.2626,0.2876,0.2852,0.2862,0.2862,0.2862,0.2861,0.2861,0.2196,0.2206,0.2183,0.2187,0.2228,0.2235,0.241,0.2517,0.263,0.2648,0.2516,0.2769,0.2783,0.2787,0.2763,0.275,0.275,0.275,0.275,0.2153,0.2161,0.2107,0.2089,0.2106,0.2161,0.2164,0.2279,0.2354,0.2334,0.2376,0.2308,0.232,0.2304,0.2319,0.2285,0.2151,0.215,0.2149,0.2118,0.2107,0.2044,0.2024,0.2029,0.2044,0.1976,0.1937,0.2019,0.2111,0.2159,0.2184,0.2073,0.2106,0.2076,0.211,0.2055,0,0]},{"header":{"parameterUnit":"m.s-1","parameterCategory":2,"la1":30.2992,"la2":30.254,"lo1":-89.0895,"lo2":-89.0443,"dy":0.0025,"dx":0.0025,"nx":19,"ny":19,"refTime":"2026-04-17T09:00:00:Z","depth":"0","parameterNumber":3,"parameterNumberName":"V-component_of_CURRENTS"},"data":[0,0,0,0.0397,0.0397,0.04,0.04,0.0399,0.0399,0,0,0,0,0,0,0,0,0,0,0,0.0397,0.0397,0.0397,0.0397,0.04,0.04,0.0399,0.0399,0,0,0,0,0,0,0,0,0,0,0,0.0396,0.0397,0.0397,0.0397,0.04,0.04,0.0399,0.0397,0,0,0,0,0,0,0,0,0,0,0.0394,0.0392,0.0397,0.0397,0.0397,0.04,0.04,0.0397,0.0397,0.0397,0,0.0401,0,0.0401,0.0399,0.0399,0,0,0,0.0393,0.0392,0.0397,0.0397,0.0398,0.04,0.0398,0.0397,0.0397,0.0397,0.0401,0.0401,0.0401,0.0399,0.0399,0.0444,0.0444,0,0,0.0393,0.0391,0.0397,0.0398,0.0403,0.0398,0.0398,0.0397,0.0396,0.0401,0.0401,0.0401,0.0399,0.0399,0.0443,0.0444,0,0,0,0.0395,0.0391,0.0397,0.0398,0.04,0.0398,0.0398,0.0396,0.04,0.0401,0.0401,0.0399,0.0399,0.0443,0.0444,0.052,0,0,0,0.0395,0.0393,0.0397,0.0395,0.04,0.0398,0.0398,0.04,0.04,0.0401,0.0399,0.0399,0.0442,0.0443,0.0517,0.0572,0,0,0,0.0396,0.0393,0.0396,0.0395,0.0398,0.0398,0.0401,0.04,0.04,0.0399,0.0399,0.0442,0.0443,0.0514,0.0566,0.0617,0,0,0,0.039,0.041,0.0396,0.0423,0.0399,0.0435,0.0401,0.0421,0.0425,0.0399,0.0442,0.0443,0.0513,0.0563,0.0614,0.0717,0.0743,0,0,0.0416,0.0413,0.0432,0.042,0.0469,0.0434,0.0483,0.0469,0.0441,0.044,0.0441,0.0518,0.0566,0.0616,0.0783,0.0807,0,0,0,0.0442,0.0458,0.0471,0.0493,0.0507,0.0531,0.0512,0.0509,0.0514,0.0449,0.052,0.0548,0.0577,0.0632,0.0651,0.0617,0.0449,0.0449,0.0449,0.0477,0.0494,0.0539,0.0565,0.0588,0.0599,0.0622,0.0613,0.0569,0.0585,0.0611,0.0705,0.0764,0.078,0.0744,0.0599,0.0599,0.06,0.06,0.054,0.0573,0.0598,0.0646,0.067,0.0708,0.0731,0.0715,0.0751,0.0688,0.0712,0.0711,0.0805,0.0759,0.0605,0.0604,0.0603,0.0603,0.0602,0.057,0.059,0.0619,0.0695,0.0761,0.0788,0.089,0.0874,0.0837,0.0869,0.0909,0.0909,0.0868,0.087,0.087,0.0871,0.0871,0.0871,0.0872,0.0588,0.0622,0.068,0.0755,0.0819,0.0912,0.0991,0.1036,0.1055,0.1023,0.1023,0.0912,0.0788,0.0777,0.0879,0.0878,0.0877,0.0876,0.0876,0.0632,0.0644,0.0738,0.0803,0.0961,0.1111,0.1173,0.129,0.1296,0.1315,0.1164,0.11,0.1089,0.1074,0.107,0.1242,0.1242,0.1242,0.1242,0.0657,0.067,0.0803,0.0924,0.1079,0.1209,0.1438,0.1513,0.1435,0.1381,0.1293,0.1242,0.1229,0.122,0.1202,0.1197,0.1398,0.1398,0.1398,0.0697,0.0732,0.0834,0.0952,0.1137,0.1333,0.1567,0.168,0.1531,0.1394,0.1228,0.1222,0.1129,0.1111,0.1076,0.1053,0.1037,0,0]}],[{"header":{"parameterUnit":"m.s-1","parameterCategory":2,"la1":30.2992,"la2":30.254,"lo1":-89.0895,"lo2":-89.0443,"dy":0.0025,"dx":0.0025,"nx":19,"ny":19,"refTime":"2026-04-17T09:00:00:Z","depth":"2","parameterNumber":2,"parameterNumberName":"U-component_of_CURRENTS"},"data":[0,0,0,0.2086,0.2087,0.2115,0.2115,0.2203,0.2204,0,0,0,0,0,0,0,0,0,0,0,0.2075,0.2075,0.2086,0.2087,0.2115,0.2115,0.2203,0.2204,0,0,0,0,0,0,0,0,0,0,0,0.2075,0.2075,0.2076,0.2087,0.2115,0.2115,0.2202,0.2168,0,0,0,0,0,0,0,0,0,0,0.2134,0.2116,0.2075,0.2076,0.2087,0.2115,0.2115,0.2165,0.217,0.2206,0,0.2211,0,0.2213,0.2211,0.2211,0,0,0,0.2084,0.2112,0.2122,0.2076,0.2087,0.2115,0.2101,0.2167,0.2173,0.2212,0.2212,0.2215,0.2215,0.2212,0.2212,0.2351,0.2352,0,0,0.2082,0.208,0.2118,0.2125,0.2098,0.21,0.2102,0.217,0.2177,0.2212,0.2217,0.2216,0.2212,0.2213,0.235,0.2351,0,0,0,0.208,0.2079,0.2086,0.2122,0.2125,0.2101,0.2103,0.2174,0.2176,0.2218,0.2217,0.2213,0.2214,0.2349,0.2351,0.2362,0,0,0,0.2079,0.2078,0.2085,0.2084,0.2124,0.2143,0.2106,0.2171,0.2179,0.2217,0.2213,0.2215,0.2349,0.235,0.236,0.235,0,0,0,0.2073,0.2077,0.2081,0.2084,0.2098,0.2141,0.2148,0.2173,0.218,0.2211,0.2216,0.2348,0.235,0.2358,0.2347,0.2371,0,0,0,0.2069,0.207,0.2081,0.2092,0.2097,0.2132,0.2147,0.2186,0.2215,0.2214,0.2349,0.235,0.2358,0.2346,0.2369,0.2257,0.2254,0,0,0.2065,0.207,0.2077,0.2088,0.2108,0.2128,0.2171,0.2218,0.2255,0.2328,0.2331,0.2361,0.2347,0.2371,0.2353,0.2347,0,0,0,0.2073,0.2071,0.2083,0.2099,0.2132,0.2166,0.2209,0.2253,0.2335,0.228,0.2392,0.2383,0.2397,0.2327,0.2324,0.2358,0.2358,0.2358,0.2358,0.2048,0.2067,0.2074,0.2101,0.2136,0.2204,0.2256,0.2329,0.2357,0.2412,0.2416,0.2471,0.2399,0.2394,0.2451,0.2451,0.2451,0.2451,0.2451,0.2025,0.2022,0.206,0.2072,0.213,0.218,0.2302,0.2352,0.2459,0.2467,0.248,0.2371,0.239,0.2453,0.2453,0.2453,0.2452,0.2452,0.2452,0.1992,0.1991,0.2005,0.2033,0.2087,0.2169,0.2254,0.236,0.2457,0.2496,0.2424,0.2422,0.2455,0.2506,0.2506,0.2506,0.2506,0.2506,0.2506,0.1948,0.196,0.1958,0.1998,0.202,0.2092,0.2237,0.2304,0.2378,0.2424,0.2423,0.2489,0.2487,0.246,0.2507,0.2507,0.2507,0.2507,0.2507,0.1897,0.1911,0.1899,0.1909,0.1954,0.1954,0.2108,0.2181,0.2277,0.2279,0.239,0.2392,0.2374,0.2376,0.2346,0.2361,0.2361,0.2361,0.2361,0.1862,0.187,0.1834,0.1825,0.1841,0.1884,0.1857,0.1913,0.2062,0.211,0.2121,0.207,0.2081,0.2045,0.2054,0.2017,0.1947,0.1946,0.1946,0.183,0.1824,0.1778,0.1767,0.177,0.1767,0.1666,0.1559,0.1669,0.1928,0.2037,0.2336,0.2289,0.2296,0.2263,0.2269,0.222,0,0]},{"header":{"parameterUnit":"m.s-1","parameterCategory":2,"la1":30.2992,"la2":30.254,"lo1":-89.0895,"lo2":-89.0443,"dy":0.0025,"dx":0.0025,"nx":19,"ny":19,"refTime":"2026-04-17T09:00:00:Z","depth":"2","parameterNumber":3,"parameterNumberName":"V-component_of_CURRENTS"},"data":[0,0,0,0.0264,0.0264,0.0266,0.0266,0.0261,0.0261,0,0,0,0,0,0,0,0,0,0,0,0.0265,0.0265,0.0264,0.0264,0.0266,0.0266,0.0261,0.0261,0,0,0,0,0,0,0,0,0,0,0,0.0264,0.0265,0.0265,0.0264,0.0266,0.0266,0.0261,0.0261,0,0,0,0,0,0,0,0,0,0,0.026,0.026,0.0265,0.0265,0.0264,0.0266,0.0266,0.0261,0.0261,0.0259,0,0.0262,0,0.0262,0.026,0.026,0,0,0,0.0262,0.026,0.0263,0.0265,0.0264,0.0266,0.0265,0.0261,0.0261,0.0259,0.0262,0.0262,0.0262,0.026,0.026,0.0304,0.0305,0,0,0.0262,0.0261,0.0263,0.0263,0.0268,0.0264,0.0265,0.0261,0.0261,0.0262,0.0261,0.0262,0.026,0.026,0.0304,0.0304,0,0,0,0.0263,0.0261,0.0264,0.0263,0.0264,0.0265,0.0265,0.0261,0.0263,0.0261,0.0261,0.026,0.026,0.0303,0.0304,0.0381,0,0,0,0.0263,0.0262,0.0264,0.0264,0.0265,0.0263,0.0265,0.0263,0.0262,0.0262,0.026,0.026,0.0303,0.0304,0.0378,0.0423,0,0,0,0.0264,0.0262,0.0264,0.0264,0.0266,0.0263,0.0265,0.0263,0.0263,0.026,0.026,0.0302,0.0303,0.0375,0.0417,0.0462,0,0,0,0.0261,0.028,0.0264,0.0291,0.0266,0.03,0.0265,0.0284,0.0288,0.026,0.0303,0.0304,0.0374,0.0414,0.0459,0.0518,0.0539,0,0,0.0288,0.0283,0.0302,0.0288,0.0335,0.0299,0.0347,0.0332,0.0304,0.0301,0.0302,0.0379,0.0417,0.0461,0.0588,0.0607,0,0,0,0.0313,0.0328,0.034,0.036,0.0372,0.0394,0.0375,0.0371,0.0377,0.0311,0.0382,0.0404,0.0429,0.0458,0.0473,0.031,0.0309,0.0309,0.0309,0.0351,0.0366,0.0409,0.0431,0.0453,0.0461,0.0482,0.0472,0.0431,0.0449,0.0469,0.0559,0.0591,0.0603,0.0464,0.0464,0.0464,0.0465,0.0465,0.0414,0.0445,0.0468,0.0514,0.0535,0.0572,0.0589,0.0573,0.0602,0.0546,0.0567,0.054,0.0624,0.0471,0.047,0.0469,0.0468,0.0468,0.0468,0.0445,0.0464,0.0492,0.0564,0.0627,0.0651,0.0738,0.0721,0.0684,0.0711,0.0722,0.0721,0.0608,0.0713,0.0714,0.0714,0.0715,0.0715,0.0715,0.0465,0.0497,0.0553,0.0624,0.0684,0.0767,0.083,0.0863,0.0863,0.0823,0.0823,0.0643,0.0635,0.0623,0.0722,0.072,0.072,0.0719,0.0719,0.0507,0.052,0.0606,0.0667,0.0812,0.0936,0.0985,0.1058,0.1057,0.106,0.0883,0.0877,0.0859,0.0846,0.0838,0.0987,0.0987,0.0987,0.0987,0.0531,0.0544,0.0664,0.0773,0.0911,0.1018,0.1179,0.1199,0.1127,0.1051,0.1047,0.0999,0.0988,0.0972,0.0956,0.0948,0.1126,0.1126,0.1126,0.0567,0.0598,0.0687,0.0794,0.0959,0.1115,0.1263,0.127,0.1137,0.1126,0.1023,0.1006,0.0924,0.0911,0.0871,0.0851,0.0832,0,0]}],[{"header":{"parameterUnit":"m.s-1","parameterCategory":2,"la1":30.2992,"la2":30.254,"lo1":-89.0895,"lo2":-89.0443,"dy":0.0025,"dx":0.0025,"nx":19,"ny":19,"refTime":"2026-04-17T09:00:00:Z","depth":"4","parameterNumber":2,"parameterNumberName":"U-component_of_CURRENTS"},"data":[0,0,0,0.1381,0.1383,0.1475,0.1475,0.1506,0.1506,0,0,0,0,0,0,0,0,0,0,0,0.1356,0.1357,0.1381,0.1384,0.1474,0.1475,0.1506,0.1506,0,0,0,0,0,0,0,0,0,0,0,0.1356,0.1357,0.1358,0.1384,0.1474,0.1475,0.1506,0.1458,0,0,0,0,0,0,0,0,0,0,0.138,0.1378,0.1357,0.1358,0.1385,0.1474,0.1475,0.1456,0.1461,0.1441,0,0.1468,0,0.1484,0.1506,0.1506,0,0,0,0.1381,0.1375,0.139,0.1358,0.1385,0.1474,0.1433,0.146,0.1464,0.1446,0.1468,0.147,0.1485,0.1506,0.1506,0.1548,0.1548,0,0,0.1376,0.1377,0.1388,0.1394,0.1423,0.143,0.1436,0.1463,0.1477,0.1468,0.1471,0.1485,0.1506,0.1506,0.1548,0.1548,0,0,0,0.1363,0.1373,0.139,0.1392,0.1414,0.1433,0.1439,0.1477,0.148,0.1472,0.1486,0.1506,0.1507,0.1547,0.1548,0.161,0,0,0,0.136,0.1366,0.1388,0.139,0.1415,0.146,0.1452,0.1479,0.1483,0.1486,0.1506,0.1507,0.1547,0.1547,0.1607,0.1614,0,0,0,0.1349,0.1365,0.1378,0.139,0.1429,0.1461,0.1467,0.148,0.149,0.1506,0.1507,0.1546,0.1547,0.1605,0.1611,0.1625,0,0,0,0.1342,0.1361,0.1379,0.141,0.1428,0.1477,0.1467,0.1518,0.1538,0.1506,0.1547,0.1548,0.1604,0.1609,0.1623,0.1417,0,0,0,0.1352,0.1363,0.1379,0.1396,0.1436,0.1464,0.1515,0.1545,0.1541,0.153,0.1532,0.1608,0.1611,0.1625,0.1477,0,0,0,0,0.1372,0.1383,0.14,0.1434,0.1472,0.152,0.1555,0.1569,0.1604,0.1558,0.1611,0.161,0.1617,0.1491,0.1553,0.1552,0.1552,0.1552,0.1552,0.1371,0.1391,0.1418,0.1453,0.1496,0.1565,0.1603,0.1627,0.1629,0.1662,0.1664,0.1718,0.1589,0.1676,0.1677,0.1677,0.1677,0.1677,0.1678,0.1364,0.1369,0.1422,0.1457,0.152,0.1578,0.1647,0.1678,0.1723,0.1714,0.1719,0.1569,0.1684,0.1683,0.1682,0.1681,0.168,0.168,0.168,0.1336,0.1339,0.1382,0.1442,0.1519,0.1601,0.1656,0.1728,0.1763,0.1791,0.1648,0.1748,0.1738,0.1806,0.1806,0.1807,0.1807,0.1807,0.1807,0.1282,0.1319,0.1354,0.1428,0.1477,0.1561,0.1679,0.1705,0.1769,0.1679,0.1812,0.176,0.1756,0.1745,0.1809,0.1808,0.1808,0.1808,0.1808,0.1225,0.1266,0.1294,0.1339,0.1425,0.146,0.1602,0.1606,0.1619,0.1575,0.1606,0.1616,0.1565,0.1565,0.1545,0.1553,0.155,0.1548,0,0.1186,0.1207,0.1237,0.1268,0.1292,0.1386,0.1357,0.1412,0.1456,0.1406,0.1618,0.1653,0.1658,0.1602,0.1598,0.1573,0,0,0,0.1152,0.1168,0.1164,0.1204,0.1214,0.1236,0.1336,0.1302,0.1453,0.1406,0.1486,0.1502,0.1701,0.1814,0.1759,0.1754,0.1731,0,0]},{"header":{"parameterUnit":"m.s-1","parameterCategory":2,"la1":30.2992,"la2":30.254,"lo1":-89.0895,"lo2":-89.0443,"dy":0.0025,"dx":0.0025,"nx":19,"ny":19,"refTime":"2026-04-17T09:00:00:Z","depth":"4","parameterNumber":3,"parameterNumberName":"V-component_of_CURRENTS"},"data":[0,0,0,0.0211,0.0211,0.0223,0.0223,0.0246,0.0247,0,0,0,0,0,0,0,0,0,0,0,0.0209,0.0209,0.0211,0.0211,0.0223,0.0223,0.0246,0.0247,0,0,0,0,0,0,0,0,0,0,0,0.0209,0.0209,0.0209,0.0211,0.0223,0.0223,0.0246,0.0235,0,0,0,0,0,0,0,0,0,0,0.0223,0.0219,0.0209,0.0209,0.0211,0.0223,0.0223,0.0235,0.0236,0.0244,0,0.0247,0,0.0247,0.0248,0.0249,0,0,0,0.0211,0.0218,0.0222,0.0209,0.0211,0.0223,0.0218,0.0235,0.0237,0.0245,0.0248,0.0248,0.0248,0.0249,0.0249,0.0307,0.0307,0,0,0.021,0.0211,0.0221,0.0223,0.0217,0.0217,0.0218,0.0236,0.0239,0.0248,0.0249,0.0248,0.0249,0.0249,0.0306,0.0307,0,0,0,0.0209,0.021,0.0213,0.0222,0.0223,0.0218,0.0218,0.0238,0.0239,0.0249,0.0248,0.0249,0.0249,0.0306,0.0307,0.0361,0,0,0,0.0208,0.0209,0.0213,0.0213,0.0223,0.023,0.022,0.0238,0.024,0.0248,0.0249,0.025,0.0306,0.0306,0.0358,0.0391,0,0,0,0.0208,0.0209,0.0211,0.0213,0.0218,0.0229,0.0231,0.0239,0.024,0.0249,0.025,0.0305,0.0306,0.0356,0.0387,0.0416,0,0,0,0.0206,0.0223,0.0211,0.0235,0.0218,0.025,0.0231,0.0253,0.0264,0.0249,0.0306,0.0307,0.0355,0.0385,0.0413,0.0391,0,0,0,0.0229,0.0226,0.0242,0.0232,0.0273,0.0248,0.0294,0.0296,0.0282,0.0299,0.03,0.0359,0.0387,0.0415,0.0453,0,0,0,0,0.0251,0.0264,0.0275,0.0294,0.0306,0.033,0.0325,0.0327,0.0346,0.0293,0.0365,0.0381,0.0397,0.0377,0.0312,0.0312,0.0311,0.0311,0.0311,0.0283,0.0296,0.0334,0.0355,0.0376,0.039,0.041,0.0412,0.0388,0.0407,0.043,0.0495,0.0477,0.0428,0.0429,0.0429,0.0429,0.0429,0.043,0.0332,0.0358,0.0384,0.0425,0.0449,0.0486,0.0505,0.0495,0.0522,0.0487,0.0499,0.0441,0.0435,0.0434,0.0433,0.0433,0.0432,0.0432,0.0431,0.0355,0.0371,0.0401,0.0468,0.0529,0.0556,0.0621,0.0614,0.0585,0.0602,0.0569,0.0536,0.0526,0.0604,0.0604,0.0604,0.0605,0.0605,0.0605,0.0364,0.0397,0.0447,0.0516,0.0572,0.0643,0.0694,0.0708,0.0679,0.064,0.062,0.0554,0.0548,0.0536,0.0609,0.0609,0.0608,0.0608,0.0607,0.0387,0.0406,0.0479,0.0535,0.0661,0.0713,0.0766,0.0764,0.0773,0.0734,0.0653,0.0649,0.0628,0.0621,0.061,0.0707,0.0707,0.0707,0,0.0399,0.0414,0.0511,0.0602,0.0702,0.0756,0.079,0.0797,0.074,0.0721,0.0751,0.0659,0.0655,0.063,0.0623,0.061,0,0,0,0.0418,0.0444,0.0511,0.0603,0.0719,0.0763,0.0799,0.0784,0.0748,0.0745,0.0708,0.0708,0.0674,0.0623,0.0581,0.0574,0.0553,0,0]}]]